Weather History for Stevensville, MD

Change the Weather History Date:

Tuesday, June 25, 2013

  Actual Average (KESN) Record (KESN)
Temperature  
Mean Temperature 80 °F -  
Max Temperature 89 °F 87 °F 98 °F (1952)
Min Temperature 71 °F 67 °F 57 °F (1972)
Cooling Degree Days 15    
Growing Degree Days 30 (Base 50)    
Moisture  
Dew Point 69 °F    
Average Humidity 70    
Maximum Humidity 94    
Minimum Humidity 43    
Precipitation  
Precipitation 0.00 in - - ()
Sea Level Pressure  
Sea Level Pressure 29.98 in    
Wind  
Wind Speed 3 mph (SW)    
Max Wind Speed 21 mph    
Max Gust Speed 37 mph    
Visibility 10 miles    
Events Rain    
Averages and records for this station are not official NWS values.
T = Trace of Precipitation, MM = Missing Value Source: NWS Daily Summary

Daily Weather History Graph

Daily Weather History Graph

Search for Another Location

Airport:

Trip Planner

Search our weather history database for the weather conditions in past years. The results will help you decide how hot, cold, wet, or windy it might be!

Date:

Astronomy

Jun. 25, 2013 Rise Set
Actual Time 5:41 AM EDT 8:34 PM EDT
Civil Twilight 5:08 AM EDT 9:07 PM EDT
Nautical Twilight 4:28 AM EDT 9:47 PM EDT
Astronomical Twilight 3:41 AM EDT 10:34 PM EDT
Moon 10:20 PM EDT (6/25) 8:16 AM EDT (6/25)
Length of Visible Light 15h 58m
Length of Day
14h 53m
Waning Gibbous, 93% of the Moon is Illuminated
Jun 25
Waning Gibbous
Jun 30
Last Quarter
Jul 8
New
Jul 15
First Quarter
Jul 22
Full

Hourly Weather History & Observations

Time (EDT) Temp. Heat Index Dew Point Humidity Pressure Visibility Wind Dir Wind Speed Gust Speed Precip Events Conditions
12:03 AM 73.4 °F - 68.0 °F 83% 30.05 in 10.0 mi Calm Calm - N/A   Clear
12:23 AM 73.4 °F - 69.8 °F 88% 30.04 in 10.0 mi SW 3.5 mph - N/A   Clear
12:43 AM 73.4 °F - 68.0 °F 83% 30.04 in 10.0 mi Calm Calm - N/A   Clear
1:03 AM 73.4 °F - 69.8 °F 88% 30.04 in 10.0 mi Calm Calm - N/A   Clear
1:23 AM 73.4 °F - 69.8 °F 88% 30.04 in 10.0 mi South 3.5 mph - N/A   Clear
1:43 AM 71.6 °F - 69.8 °F 94% 30.03 in 10.0 mi South 3.5 mph - N/A   Clear
2:03 AM 71.6 °F - 69.8 °F 94% 30.03 in 10.0 mi South 4.6 mph - N/A   Clear
2:23 AM 71.6 °F - 69.8 °F 94% 30.03 in 10.0 mi South 4.6 mph - N/A   Clear
2:43 AM 73.4 °F - 69.8 °F 88% 30.03 in 10.0 mi Calm Calm - N/A   Clear
3:03 AM 71.6 °F - 69.8 °F 94% 30.02 in 10.0 mi Calm Calm - N/A   Clear
3:23 AM 73.4 °F - 69.8 °F 88% 30.02 in 10.0 mi Calm Calm - N/A   Clear
3:44 AM 71.6 °F - 69.8 °F 94% 30.02 in 10.0 mi Calm Calm - N/A   Clear
4:04 AM 71.6 °F - 69.8 °F 94% 30.01 in 10.0 mi Calm Calm - N/A   Clear
4:24 AM 71.6 °F - 69.8 °F 94% 30.00 in 10.0 mi Calm Calm - N/A   Clear
4:44 AM 71.6 °F - 69.8 °F 94% 30.01 in 10.0 mi Calm Calm - N/A   Clear
5:04 AM 71.6 °F - 69.8 °F 94% 30.01 in 10.0 mi Calm Calm - N/A   Clear
5:24 AM 71.6 °F - 69.8 °F 94% 30.01 in 10.0 mi Calm Calm - N/A   Clear
5:44 AM 71.6 °F - 69.8 °F 94% 30.01 in 10.0 mi Calm Calm - N/A   Clear
6:04 AM 71.6 °F - 69.8 °F 94% 30.01 in 10.0 mi Calm Calm - N/A   Clear
6:24 AM 71.6 °F - 69.8 °F 94% 30.01 in 10.0 mi Calm Calm - N/A   Clear
6:44 AM 73.4 °F - 69.8 °F 88% 30.01 in 10.0 mi Calm Calm - N/A   Clear
7:04 AM 73.4 °F - 69.8 °F 88% 30.01 in 10.0 mi Calm Calm - N/A   Clear
7:24 AM 73.4 °F - 69.8 °F 88% 30.02 in 10.0 mi Calm Calm - N/A   Clear
7:44 AM 73.4 °F - 69.8 °F 88% 30.02 in 10.0 mi SSW 4.6 mph - N/A   Clear
8:04 AM 75.2 °F - 69.8 °F 83% 30.02 in 10.0 mi SW 6.9 mph - N/A   Clear
8:24 AM 77.0 °F - 69.8 °F 78% 30.01 in 10.0 mi SW 5.8 mph - N/A   Clear
8:44 AM 77.0 °F - 69.8 °F 78% 30.02 in 10.0 mi SW 6.9 mph - N/A   Clear
9:04 AM 77.0 °F - 69.8 °F 78% 30.02 in 10.0 mi SSW 4.6 mph - N/A   Clear
9:24 AM 78.8 °F - 69.8 °F 74% 30.01 in 10.0 mi SW 4.6 mph - N/A   Clear
9:44 AM 78.8 °F - 69.8 °F 74% 30.02 in 10.0 mi WSW 4.6 mph - N/A   Clear
10:04 AM 78.8 °F - 69.8 °F 74% 30.02 in 10.0 mi WSW 4.6 mph - N/A   Clear
10:24 AM 80.6 °F 83.9 °F 69.8 °F 70% 30.02 in 10.0 mi WSW 4.6 mph - N/A   Clear
10:44 AM 82.4 °F 86.3 °F 69.8 °F 66% 30.02 in 10.0 mi West 5.8 mph - N/A   Clear
11:04 AM 82.4 °F 86.3 °F 69.8 °F 66% 30.02 in 10.0 mi West 6.9 mph - N/A   Clear
11:24 AM 82.4 °F 87.2 °F 71.6 °F 70% 30.02 in 10.0 mi West 4.6 mph - N/A   Clear
11:44 AM 84.2 °F 87.3 °F 68.0 °F 58% 30.02 in 10.0 mi WSW 4.6 mph - N/A   Clear
12:05 PM 86.0 °F 90.4 °F 69.8 °F 58% 30.01 in 10.0 mi SW 4.6 mph - N/A   Clear
12:25 PM 86.0 °F 89.4 °F 68.0 °F 55% 30.00 in 10.0 mi WSW 3.5 mph - N/A   Clear
12:45 PM 87.8 °F 91.4 °F 68.0 °F 52% 30.00 in 10.0 mi West 4.6 mph - N/A   Clear
1:05 PM 87.8 °F 91.4 °F 68.0 °F 52% 29.99 in 10.0 mi WSW 5.8 mph - N/A   Clear
1:25 PM 87.8 °F 89.4 °F 64.4 °F 46% 29.99 in 10.0 mi WSW 5.8 mph - N/A   Clear
1:45 PM 87.8 °F 90.4 °F 66.2 °F 49% 29.98 in 10.0 mi WSW 5.8 mph - N/A   Clear
2:05 PM 87.8 °F 90.4 °F 66.2 °F 49% 29.97 in 10.0 mi WSW 5.8 mph - N/A   Clear
2:25 PM 87.8 °F 90.4 °F 66.2 °F 49% 29.97 in 10.0 mi WSW 4.6 mph - N/A   Clear
2:45 PM 89.6 °F 91.1 °F 64.4 °F 43% 29.96 in 10.0 mi SSW 6.9 mph - N/A   Clear
3:05 PM 89.6 °F 92.2 °F 66.2 °F 46% 29.96 in 10.0 mi SSW 5.8 mph - N/A   Clear
3:25 PM 89.6 °F 93.4 °F 68.0 °F 49% 29.95 in 10.0 mi SSW 5.8 mph - N/A   Clear
3:45 PM 89.6 °F 92.2 °F 66.2 °F 46% 29.95 in 10.0 mi South 6.9 mph - N/A   Clear
4:05 PM 89.6 °F 93.4 °F 68.0 °F 49% 29.95 in 10.0 mi SSW 8.1 mph - N/A   Clear
4:25 PM 89.6 °F 93.4 °F 68.0 °F 49% 29.94 in 10.0 mi SSW 6.9 mph - N/A   Clear
4:45 PM 89.6 °F 93.4 °F 68.0 °F 49% 29.94 in 10.0 mi South 6.9 mph - N/A   Clear
5:05 PM 89.6 °F 94.7 °F 69.8 °F 52% 29.93 in 10.0 mi South 6.9 mph - N/A   Clear
5:25 PM 89.6 °F 94.7 °F 69.8 °F 52% 29.91 in 10.0 mi SSW 6.9 mph - N/A   Clear
5:45 PM 89.6 °F 94.7 °F 69.8 °F 52% 29.91 in 10.0 mi SSW 5.8 mph - N/A   Clear
6:05 PM 89.6 °F 94.7 °F 69.8 °F 52% 29.90 in 10.0 mi SW 8.1 mph - N/A   Clear
6:25 PM 87.8 °F 92.6 °F 69.8 °F 55% 29.90 in 10.0 mi SSW 5.8 mph - N/A   Clear
6:45 PM 87.8 °F 92.6 °F 69.8 °F 55% 29.90 in 10.0 mi SSW 5.8 mph - N/A   Clear
7:05 PM 87.8 °F 92.6 °F 69.8 °F 55% 29.90 in 10.0 mi SSW 5.8 mph - N/A   Clear
7:25 PM 87.8 °F 92.6 °F 69.8 °F 55% 29.89 in 10.0 mi SSW 6.9 mph - N/A   Clear
7:45 PM 86.0 °F 90.4 °F 69.8 °F 58% 29.89 in 10.0 mi SSW 5.8 mph - N/A   Clear
8:05 PM 86.0 °F 89.4 °F 68.0 °F 55% 29.90 in 10.0 mi SSW 6.9 mph - N/A   Clear
8:25 PM 86.0 °F 89.4 °F 68.0 °F 55% 29.91 in 10.0 mi SSW 6.9 mph - N/A   Clear
8:45 PM 84.2 °F 87.3 °F 68.0 °F 58% 29.91 in 10.0 mi SSW 6.9 mph - N/A   Clear
9:06 PM 84.2 °F 87.3 °F 68.0 °F 58% 29.92 in 10.0 mi SSW 4.6 mph - N/A   Clear
9:26 PM 82.4 °F 86.3 °F 69.8 °F 66% 29.93 in 10.0 mi SW 4.6 mph - N/A   Clear
9:46 PM 82.4 °F 86.3 °F 69.8 °F 66% 29.93 in 10.0 mi SW 4.6 mph - N/A   Clear
10:06 PM 82.4 °F 85.4 °F 68.0 °F 62% 29.93 in 10.0 mi SW 6.9 mph - N/A   Clear
10:26 PM 82.4 °F 85.4 °F 68.0 °F 62% 29.93 in 10.0 mi SW 6.9 mph - N/A   Clear
10:46 PM 82.4 °F 85.4 °F 68.0 °F 62% 29.92 in 10.0 mi SW 8.1 mph - N/A   Clear
11:06 PM 82.4 °F 86.3 °F 69.8 °F 66% 29.93 in 10.0 mi SW 5.8 mph - N/A   Clear
11:26 PM 78.8 °F - 60.8 °F 54% 29.98 in 10.0 mi NW 20.7 mph 36.8 mph N/A   Scattered Clouds
11:46 PM 71.6 °F - 66.2 °F 83% 29.97 in 10.0 mi NW 6.9 mph 19.6 mph N/A Rain Light Rain